Starlink 30792

operational
NORAD ID: 58220 Int'l Des: 2023-170 Owner: SPXS Country: US Constellation: starlink
LEOCIRCULAR

About Starlink 30792

Description loading...

Live Position

Loading 3D Globe...

Upcoming Passes

Altitude History

Altitude vs Time

uPlot chart will show altitude changes over time

Two-Line Element Set

1 58220U 23170Q 25302.99791474 .00000231 00000-0 32187-4 0 9993
2 58220 43.0015 185.7517 0001096 273.8140 86.2577 15.02532611110628
Epoch: Oct 29, 2025 • Age: 22 hours

Current Status

Altitude 566.6 km
Velocity 7.58 km/s
Sub-Earth Point -29.81°S, 33.61°E
Launch Date Nov 4, 2023
Age 1.9 years
Type internet

Technical Details

Classification Payload
Mass 730.00 kg
Dry Mass 700.00 kg
Total Mass 730.00 kg
Length 0.30 m
Diameter 4.10 m
Span 29.00 m
Shape Box + pan
Manufacturer SPXS
Bus Type Starlink V2M
Phase Status In Orbit
Owner/State SPXS/US

Large Constellations

Loading constellations...